DW2935 Weather Reports


Display with metric or nautical units.
time (UTC)temp
F
wind
direction
speed
MPH
gust
MPH
rain 1hr
in
rain 24hr
in
rain mn
in
humidity
%
barometer
mb
20260504192910 68 0.0 0.0 0.00 0.00 0.00 36 1005.6
20260504192409 68 0.0 0.0 0.00 0.00 0.00 36 1005.5
20260504191907 69 0.0 0.0 0.00 0.00 0.00 35 1005.4
20260504191359 68 0.0 0.0 0.00 0.00 0.00 37 1005.4
20260504190831 67 0.0 0.0 0.00 0.00 0.00 35 1005.5
20260504190323 68 0.0 0.0 0.00 0.00 0.00 36 1005.5
20260504185822 68 0.0 0.0 0.00 0.00 0.00 34 1005.6
20260504185308 68 0.0 0.0 0.00 0.00 0.00 36 1005.6
20260504184801 67 0.0 0.0 0.00 0.00 0.00 36 1005.6
20260504184301 67 0.0 0.0 0.00 0.00 0.00 35 1005.7
20260504184029 68 0.0 0.0 0.00 0.00 0.00 36 1005.7
20260504183259 70 0.0 0.0 0.00 0.00 0.00 32 1005.6
20260504182759 71 0.0 0.0 0.00 0.00 0.00 33 1005.6
20260504182257 71 0.0 0.0 0.00 0.00 0.00 36 1005.7
20260504181751 70 0.0 0.0 0.00 0.00 0.00 32 1005.7
20260504181241 71 0.0 0.0 0.00 0.00 0.00 34 1005.6
20260504180744 69 0.0 0.0 0.00 0.00 0.00 33 1005.8
20260504180454 71 0.0 0.0 0.00 0.00 0.00 32 1005.6
20260504175945 71 0.0 0.0 0.00 0.00 0.00 32 1005.7
20260504175201 70 0.0 0.0 0.00 0.00 0.00 34 1005.7
20260504174702 69 0.0 0.0 0.00 0.00 0.00 33 1005.7
20260504174157 71 0.0 0.0 0.00 0.00 0.00 33 1005.7
20260504173652 69 0.0 0.0 0.00 0.00 0.00 34 1005.7
20260504173646 70 0.0 0.0 0.00 0.00 0.00 32 1005.6
20260504173132 69 0.0 0.0 0.00 0.00 0.00 35 1005.7
20260504172126 69 0.0 0.0 0.00 0.00 0.00 34 1005.9
20260504171631 69 0.0 0.0 0.00 0.00 0.00 34 1005.9
20260504171627 69 0.0 0.0 0.00 0.00 0.00 34 1005.9
20260504170624 68 0.0 0.0 0.00 0.00 0.00 35 1005.9
20260504170117 67 0.0 0.0 0.00 0.00 0.00 32 1005.9
20260504150857 66 0.0 0.0 0.00 0.00 0.00 39 1006.6
20260504150358 64 0.0 0.0 0.00 0.00 0.00 39 1006.6
20260504150113 64 0.0 0.0 0.00 0.00 0.00 39 1006.6
20260504141246 61 0.0 0.0 0.00 0.00 0.00 43 1007.1
20260504141005 61 0.0 0.0 0.00 0.00 0.00 44 1007.2
20260504140221 60 0.0 0.0 0.00 0.00 0.00 45 1007.1
20260504130602 56 0.0 0.0 0.00 0.00 0.00 53 1007.9
20260504110245 44 0.0 0.0 0.00 0.00 0.00 74 1008.8
20260504100556 43 0.0 0.0 0.00 0.03 0.00 75 1008.6
20260504081701 43 0.0 0.0 0.00 0.04 0.00 70 1008.4
20260504081205 42 0.0 0.0 0.00 0.04 0.00 70 1008.6
20260504081201 42 0.0 0.0 0.00 0.04 0.00 70 1008.6
20260504080157 42 0.0 0.0 0.00 0.04 0.00 70 1008.8
20260504070402 38 0.0 0.0 0.00 0.04 0.00 77 1008.6
20260504060200 36 0.0 0.0 0.00 0.04 0.00 77 1008.4
20260504050510 36 0.0 0.0 0.00 0.04 0.00 72 1008.5
20260504050000 36 0.0 0.0 0.00 0.04 0.00 72 1008.5
20260504045724 36 0.0 0.0 0.00 0.04 0.00 71 1008.5
20260504044950 36 0.0 0.0 0.00 0.04 0.00 71 1008.5
20260504044911 37 0.0 0.0 0.00 0.04 0.00 70 1008.5
20260504043902 37 0.0 0.0 0.00 0.04 0.00 70 1008.5
20260504043402 37 0.0 0.0 0.00 0.04 0.00 70 1008.5
20260504042856 37 0.0 0.0 0.00 0.04 0.00 68 1008.5
20260504042337 37 0.0 0.0 0.00 0.04 0.00 68 1008.5
20260504042210 37 0.0 0.0 0.00 0.04 0.00 68 1008.5
20260504042105 38 0.0 0.0 0.00 0.04 0.00 67 1008.5
20260504040820 38 0.0 0.0 0.00 0.04 0.00 66 1008.4
20260504040538 38 0.0 0.0 0.00 0.04 0.00 67 1008.4
20260504040419 38 0.0 0.0 0.00 0.04 0.04 67 1008.4
20260504035305 38 0.0 0.0 0.00 0.04 0.04 67 1008.4
20260504034755 38 0.0 0.0 0.00 0.04 0.04 67 1008.3
20260504034251 38 0.0 0.0 0.00 0.04 0.04 66 1008.3
20260504033748 39 0.0 0.0 0.00 0.04 0.04 66 1008.4
20260504033236 39 0.0 0.0 0.00 0.04 0.04 66 1008.4
20260504032957 39 0.0 0.0 0.00 0.04 0.04 65 1008.4
20260504032226 39 0.0 0.0 0.00 0.04 0.04 65 1008.4
20260504031720 39 0.0 0.0 0.00 0.04 0.04 65 1008.3
20260504031205 39 0.0 0.0 0.00 0.05 0.04 65 1008.3
20260504030933 39 0.0 0.0 0.00 0.05 0.04 65 1008.2
20260504030156 39 0.0 0.0 0.00 0.05 0.04 64 1008.3
20260504025604 39 0.0 0.0 0.00 0.05 0.04 64 1008.3
20260504025035 39 0.0 0.0 0.00 0.05 0.04 65 1008.3
20260504024524 40 0.0 0.0 0.00 0.05 0.04 65 1008.3
20260504024021 40 0.0 0.0 0.00 0.06 0.04 65 1008.3
20260504023507 40 0.0 0.0 0.00 0.06 0.04 64 1008.4
20260504023004 40 0.0 0.0 0.00 0.06 0.04 65 1008.3
20260504022504 40 0.0 0.0 0.00 0.06 0.04 64 1008.4
20260504021945 40 0.0 0.0 0.00 0.06 0.04 64 1008.3
20260504021711 40 0.0 0.0 0.00 0.06 0.04 64 1008.4
20260504020921 40 0.0 0.0 0.00 0.06 0.04 64 1008.3
20260504020649 40 0.0 0.0 0.00 0.06 0.04 64 1008.3
20260504015907 41 0.0 0.0 0.00 0.06 0.04 63 1008.3
20260504015401 41 0.0 0.0 0.00 0.06 0.04 62 1008.2
20260504014904 41 0.0 0.0 0.00 0.06 0.04 62 1008.2
20260504014358 41 0.0 0.0 0.00 0.06 0.04 61 1008.3
20260504013858 41 0.0 0.0 0.00 0.06 0.04 60 1008.2
20260504013401 41 0.0 0.0 0.00 0.06 0.04 60 1008.2
20260504012903 42 0.0 0.0 0.00 0.06 0.04 59 1008.1
20260504012858 42 0.0 0.0 0.00 0.06 0.04 59 1008.2
20260504012116 42 0.0 0.0 0.00 0.06 0.04 59 1008.1
20260504011343 42 0.0 0.0 0.00 0.06 0.04 59 1008.1
20260504010842 42 0.0 0.0 0.00 0.06 0.04 59 1008.0
20260504010315 42 0.0 0.0 0.00 0.06 0.04 59 1008.0
20260504005802 43 0.0 0.0 0.00 0.06 0.04 58 1007.9
20260504005235 43 0.0 0.0 0.00 0.06 0.04 57 1008.0
20260504004732 43 0.0 0.0 0.00 0.06 0.04 57 1008.0
20260504004224 43 0.0 0.0 0.00 0.06 0.04 56 1007.9
20260504003703 44 0.0 0.0 0.00 0.06 0.04 56 1007.7
20260504003431 44 0.0 0.0 0.00 0.06 0.04 55 1007.7
20260504002657 44 0.0 0.0 0.00 0.06 0.04 55 1007.6
20260504002150 44 0.0 0.0 0.00 0.06 0.04 54 1007.5
20260504002132 45 0.0 0.0 0.00 0.07 0.04 54 1007.6
20260504001108 45 0.0 0.0 0.00 0.07 0.04 54 1007.5
20260504000838 45 0.0 0.0 0.00 0.07 0.04 53 1007.4
20260504000106 46 0.0 0.0 0.00 0.07 0.04 54 1007.4
20260503235603 46 0.0 0.0 0.00 0.07 0.04 54 1007.3
20260503235042 46 0.0 0.0 0.00 0.07 0.04 54 1007.3
20260503234523 46 0.0 0.0 0.00 0.07 0.04 54 1007.2
20260503234022 47 0.0 0.0 0.00 0.07 0.04 54 1007.1
20260503233509 47 0.0 0.0 0.00 0.07 0.04 54 1007.0
20260503232959 47 0.0 0.0 0.00 0.07 0.04 54 1007.0
20260503232457 47 0.0 0.0 0.00 0.07 0.04 53 1006.9
20260503231942 47 0.0 0.0 0.00 0.07 0.04 52 1007.0
20260503231415 47 0.0 0.0 0.00 0.07 0.04 54 1006.9
20260503230905 48 0.0 0.0 0.00 0.07 0.04 52 1006.9
20260503230404 48 0.0 0.0 0.00 0.07 0.04 51 1006.9
20260503225853 48 0.0 0.0 0.00 0.07 0.04 50 1006.7
20260503225340 48 0.0 0.0 0.00 0.07 0.04 50 1006.7
20260503224824 48 0.0 0.0 0.00 0.08 0.04 49 1006.7
20260503224315 48 0.0 0.0 0.00 0.09 0.04 50 1006.7
20260503224305 49 0.0 0.0 0.00 0.10 0.04 51 1006.6
20260503223251 49 0.0 0.0 0.00 0.11 0.04 50 1006.5
20260503222745 49 0.0 0.0 0.00 0.14 0.04 49 1006.5
20260503222231 49 0.0 0.0 0.00 0.17 0.04 48 1006.5
20260503221717 50 0.0 0.0 0.00 0.18 0.04 49 1006.4
20260503221702 50 0.0 0.0 0.00 0.20 0.04 49 1006.4
20260503220701 50 0.0 0.0 0.00 0.21 0.04 47 1006.3
20260503220155 50 0.0 0.0 0.00 0.21 0.04 48 1006.2
20260503215651 50 0.0 0.0 0.00 0.21 0.04 51 1006.2
20260503215149 50 0.0 0.0 0.00 0.21 0.04 48 1006.2
20260503214625 50 0.0 0.0 0.00 0.22 0.04 49 1006.2
20260503214126 48 0.0 0.0 0.00 0.22 0.04 49 1006.2
20260503213847 48 0.0 0.0 0.00 0.24 0.04 51 1006.1
20260503213720 48 0.0 0.0 0.00 0.24 0.04 53 1006.2
20260503212602 48 0.0 0.0 0.00 0.24 0.04 54 1006.1
20260503212335 49 0.0 0.0 0.00 0.24 0.04 49 1006.1
20260503211600 49 0.0 0.0 0.00 0.24 0.04 49 1006.2
20260503211327 49 0.0 0.0 0.00 0.24 0.04 47 1006.0
20260503210816 49 0.0 0.0 0.00 0.24 0.04 46 1005.9
20260503210309 49 0.0 0.0 0.00 0.24 0.04 49 1005.9
20260503205529 49 0.0 0.0 0.00 0.24 0.04 50 1005.8
20260503205027 49 0.0 0.0 0.00 0.24 0.04 46 1005.9
20260503204527 49 0.0 0.0 0.00 0.24 0.04 47 1005.8
20260503204015 50 0.0 0.0 0.00 0.24 0.04 46 1005.7
20260503203509 50 0.0 0.0 0.00 0.24 0.04 45 1005.7
20260503203002 51 0.0 0.0 0.00 0.24 0.04 46 1005.7
20260503202503 52 0.0 0.0 0.00 0.24 0.04 50 1005.7
20260503202000 52 0.0 0.0 0.00 0.24 0.04 46 1005.6
20260503201459 50 0.0 0.0 0.00 0.25 0.04 51 1005.7
20260503200954 49 0.0 0.0 0.00 0.25 0.04 48 1005.7
20260503200454 48 0.0 0.0 0.00 0.26 0.04 49 1005.7
20260503200218 48 0.0 0.0 0.00 0.27 0.04 49 1005.8
20260503195935 49 0.0 0.0 0.00 0.27 0.04 55 1005.7
20260503194924 49 0.0 0.0 0.00 0.27 0.04 50 1005.7
20260503194419 49 0.0 0.0 0.00 0.28 0.04 50 1005.8
20260503193912 49 0.0 0.0 0.00 0.28 0.04 48 1005.6
20260503193402 49 0.0 0.0 0.00 0.28 0.04 57 1005.7